date,time,SUV Intensity [MED/Hr],UV Index,Daily total [MED],Since Last [MED]
20/04/2022,00:07:07,0.001,0.0,0.0,0.0
20/04/2022,00:08:16,0.000,0.0,0.0,0.0
20/04/2022,00:09:07,0.001,0.0,0.0,0.0
20/04/2022,00:10:07,0.000,0.0,0.0,0.0
20/04/2022,00:11:07,0.000,0.0,0.0,0.0
20/04/2022,00:12:07,0.000,0.0,0.0,0.0
20/04/2022,00:13:08,0.000,0.0,0.0,0.0
20/04/2022,00:14:08,0.000,0.0,0.0,0.0
20/04/2022,00:15:07,0.000,0.0,0.0,0.0
20/04/2022,00:16:07,0.001,0.0,0.0,0.0
20/04/2022,00:17:07,0.000,0.0,0.0,0.0
20/04/2022,00:18:15,0.000,0.0,0.0,0.0
20/04/2022,00:19:15,0.000,0.0,0.0,0.0
20/04/2022,00:20:07,0.000,0.0,0.0,0.0
20/04/2022,00:21:08,0.001,0.0,0.0,0.0
20/04/2022,00:22:08,-0.000,0.0,0.0,0.0
20/04/2022,00:23:08,0.000,0.0,0.0,0.0
20/04/2022,00:24:07,0.000,0.0,0.0,0.0
20/04/2022,00:25:08,0.001,0.0,0.0,0.0
20/04/2022,00:26:07,-0.000,0.0,0.0,0.0
20/04/2022,00:27:07,0.000,0.0,0.0,0.0
20/04/2022,00:28:07,0.000,0.0,0.0,0.0
20/04/2022,00:29:08,0.001,0.0,0.0,0.0
20/04/2022,00:30:07,0.001,0.0,0.0,0.0
20/04/2022,00:31:07,0.000,0.0,0.0,0.0
20/04/2022,00:32:07,0.001,0.0,0.0,0.0
20/04/2022,00:33:07,0.000,0.0,0.0,0.0
20/04/2022,00:34:07,0.001,0.0,0.0,0.0
20/04/2022,00:35:07,0.001,0.0,0.0,0.0
20/04/2022,00:36:08,0.001,0.0,0.0,0.0
20/04/2022,00:37:07,0.001,0.0,0.0,0.0
20/04/2022,00:38:07,0.001,0.0,0.0,0.0
20/04/2022,00:39:07,0.001,0.0,0.0,0.0
20/04/2022,00:40:08,0.001,0.0,0.0,0.0
20/04/2022,00:41:08,-0.000,0.0,0.0,0.0
20/04/2022,00:42:07,0.001,0.0,0.0,0.0
20/04/2022,00:43:07,0.001,0.0,0.0,0.0
20/04/2022,00:44:08,0.001,0.0,0.0,0.0
20/04/2022,00:45:07,0.001,0.0,0.0,0.0
20/04/2022,00:46:07,0.001,0.0,0.0,0.0
20/04/2022,00:47:07,0.001,0.0,0.0,0.0
20/04/2022,00:48:08,0.001,0.0,0.0,0.0
20/04/2022,00:49:07,0.001,0.0,0.0,0.0
20/04/2022,00:50:07,0.001,0.0,0.0,0.0
20/04/2022,00:51:07,0.000,0.0,0.0,0.0
20/04/2022,00:52:07,0.001,0.0,0.0,0.0
20/04/2022,00:53:07,0.001,0.0,0.0,0.0
20/04/2022,00:54:07,-0.000,0.0,0.0,0.0
20/04/2022,00:55:07,0.001,0.0,0.0,0.0
20/04/2022,00:56:07,0.001,0.0,0.0,0.0
20/04/2022,00:57:07,0.001,0.0,0.0,0.0
20/04/2022,00:58:07,0.001,0.0,0.0,0.0
20/04/2022,00:59:07,0.001,0.0,0.0,0.0
20/04/2022,01:00:08,0.001,0.0,0.0,0.0
20/04/2022,01:01:08,0.001,0.0,0.0,0.0
20/04/2022,01:02:07,0.001,0.0,0.0,0.0
20/04/2022,01:03:15,0.001,0.0,0.0,0.0
20/04/2022,01:05:08,0.001,0.0,0.0,0.0
20/04/2022,01:06:16,0.001,0.0,0.0,0.0
20/04/2022,01:07:07,0.001,0.0,0.0,0.0
20/04/2022,01:08:07,0.001,0.0,0.0,0.0
20/04/2022,01:09:07,0.001,0.0,0.0,0.0
20/04/2022,01:10:07,0.001,0.0,0.0,0.0
20/04/2022,01:11:08,0.001,0.0,0.0,0.0
20/04/2022,01:12:07,0.001,0.0,0.0,0.0
20/04/2022,01:13:08,0.001,0.0,0.0,0.0
20/04/2022,01:14:07,0.001,0.0,0.0,0.0
20/04/2022,01:15:07,0.001,0.0,0.0,0.0
20/04/2022,01:16:15,0.001,0.0,0.0,0.0
20/04/2022,01:17:07,0.001,0.0,0.0,0.0
20/04/2022,01:18:08,0.001,0.0,0.0,0.0
20/04/2022,01:19:07,0.001,0.0,0.0,0.0
20/04/2022,01:20:07,0.001,0.0,0.0,0.0
20/04/2022,01:21:07,0.001,0.0,0.0,0.0
20/04/2022,01:22:08,0.001,0.0,0.0,0.0
20/04/2022,01:23:07,0.001,0.0,0.0,0.0
20/04/2022,01:24:15,0.001,0.0,0.0,0.0
20/04/2022,01:26:08,0.001,0.0,0.0,0.0
20/04/2022,01:27:09,0.001,0.0,0.0,0.0
20/04/2022,01:28:07,0.001,0.0,0.0,0.0
20/04/2022,01:29:07,0.001,0.0,0.0,0.0
20/04/2022,01:30:08,0.001,0.0,0.0,0.0
20/04/2022,01:31:08,0.001,0.0,0.0,0.0
20/04/2022,01:32:07,0.001,0.0,0.0,0.0
20/04/2022,01:33:07,0.001,0.0,0.0,0.0
20/04/2022,01:34:16,0.001,0.0,0.0,0.0
20/04/2022,01:36:08,0.001,0.0,0.0,0.0
20/04/2022,01:37:07,0.001,0.0,0.0,0.0
20/04/2022,01:38:07,0.002,0.0,0.0,0.0
20/04/2022,01:39:08,0.001,0.0,0.0,0.0
20/04/2022,01:40:07,0.001,0.0,0.0,0.0
20/04/2022,01:41:08,0.001,0.0,0.0,0.0
20/04/2022,01:42:08,0.001,0.0,0.0,0.0
20/04/2022,01:43:08,0.001,0.0,0.0,0.0
20/04/2022,01:44:07,0.001,0.0,0.0,0.0
20/04/2022,01:45:07,0.002,0.0,0.0,0.0
20/04/2022,01:46:08,0.001,0.0,0.0,0.0
20/04/2022,01:47:16,0.001,0.0,0.0,0.0
20/04/2022,01:48:07,0.001,0.0,0.0,0.0
20/04/2022,01:49:07,0.001,0.0,0.0,0.0
20/04/2022,01:50:07,0.001,0.0,0.0,0.0
20/04/2022,01:51:08,0.002,0.0,0.0,0.0
20/04/2022,01:52:08,0.001,0.0,0.0,0.0
20/04/2022,01:53:07,0.001,0.0,0.0,0.0
20/04/2022,01:54:07,0.001,0.0,0.0,0.0
20/04/2022,01:55:15,0.001,0.0,0.0,0.0
20/04/2022,01:57:08,0.001,0.0,0.0,0.0
20/04/2022,01:58:08,0.001,0.0,0.0,0.0
20/04/2022,01:59:08,0.001,0.0,0.0,0.0
20/04/2022,02:00:07,0.001,0.0,0.0,0.0
20/04/2022,02:01:30,0.001,0.0,0.0,0.0
20/04/2022,02:03:08,0.001,0.0,0.0,0.0
20/04/2022,02:04:08,0.001,0.0,0.0,0.0
20/04/2022,02:05:15,0.001,0.0,0.0,0.0
20/04/2022,02:06:07,0.001,0.0,0.0,0.0
20/04/2022,02:07:07,0.001,0.0,0.0,0.0
20/04/2022,02:08:07,0.001,0.0,0.0,0.0
20/04/2022,02:09:07,0.001,0.0,0.0,0.0
20/04/2022,02:10:07,0.001,0.0,0.0,0.0
20/04/2022,02:11:08,0.001,0.0,0.0,0.0
20/04/2022,02:12:07,0.002,0.0,0.0,0.0
20/04/2022,02:13:07,0.001,0.0,0.0,0.0
20/04/2022,02:14:07,0.001,0.0,0.0,0.0
20/04/2022,02:15:15,0.001,0.0,0.0,0.0
20/04/2022,02:17:08,0.001,0.0,0.0,0.0
20/04/2022,02:18:16,0.001,0.0,0.0,0.0
20/04/2022,02:19:08,0.002,0.0,0.0,0.0
20/04/2022,02:20:07,0.001,0.0,0.0,0.0
20/04/2022,02:21:08,0.003,0.0,0.0,0.0
20/04/2022,02:22:08,0.001,0.0,0.0,0.0
20/04/2022,02:23:09,0.001,0.0,0.0,0.0
20/04/2022,02:24:08,0.001,0.0,0.0,0.0
20/04/2022,02:25:08,0.001,0.0,0.0,0.0
20/04/2022,02:26:16,0.001,0.0,0.0,0.0
20/04/2022,02:28:08,0.001,0.0,0.0,0.0
20/04/2022,02:29:07,0.001,0.0,0.0,0.0
20/04/2022,02:30:07,0.001,0.0,0.0,0.0
20/04/2022,02:31:09,0.001,0.0,0.0,0.0
20/04/2022,02:32:08,0.001,0.0,0.0,0.0
20/04/2022,02:33:07,0.001,0.0,0.0,0.0
20/04/2022,02:34:08,0.001,0.0,0.0,0.0
20/04/2022,02:35:08,0.001,0.0,0.0,0.0
20/04/2022,02:36:16,0.001,0.0,0.0,0.0
20/04/2022,02:38:25,0.001,0.0,0.0,0.0
20/04/2022,02:40:08,0.001,0.0,0.0,0.0
20/04/2022,02:41:08,0.001,0.0,0.0,0.0
20/04/2022,02:42:07,0.001,0.0,0.0,0.0
20/04/2022,02:43:15,0.001,0.0,0.0,0.0
20/04/2022,02:44:07,0.001,0.0,0.0,0.0
20/04/2022,02:45:07,0.001,0.0,0.0,0.0
20/04/2022,02:46:16,0.001,0.0,0.0,0.0
20/04/2022,02:47:07,0.001,0.0,0.0,0.0
20/04/2022,02:48:07,0.001,0.0,0.0,0.0
20/04/2022,02:49:08,0.001,0.0,0.0,0.0
20/04/2022,02:50:07,0.001,0.0,0.0,0.0
20/04/2022,02:51:09,0.001,0.0,0.0,0.0
20/04/2022,02:52:08,0.001,0.0,0.0,0.0
20/04/2022,02:53:08,0.001,0.0,0.0,0.0
20/04/2022,02:54:08,0.001,0.0,0.0,0.0
20/04/2022,02:55:07,0.001,0.0,0.0,0.0
20/04/2022,02:56:08,0.001,0.0,0.0,0.0
20/04/2022,02:56:59,0.001,0.0,0.0,0.0
20/04/2022,02:58:09,0.001,0.0,0.0,0.0
20/04/2022,02:59:06,0.001,0.0,0.0,0.0
20/04/2022,03:00:07,0.001,0.0,0.0,0.0
20/04/2022,03:01:08,0.001,0.0,0.0,0.0
20/04/2022,03:02:07,0.001,0.0,0.0,0.0
20/04/2022,03:03:07,0.001,0.0,0.0,0.0
20/04/2022,03:04:16,0.001,0.0,0.0,0.0
20/04/2022,03:05:07,0.001,0.0,0.0,0.0
20/04/2022,03:06:08,0.001,0.0,0.0,0.0
20/04/2022,03:07:08,0.001,0.0,0.0,0.0
20/04/2022,03:08:08,0.001,0.0,0.0,0.0
20/04/2022,03:09:10,0.001,0.0,0.0,0.0
20/04/2022,03:10:07,0.001,0.0,0.0,0.0
20/04/2022,03:11:07,0.001,0.0,0.0,0.0
20/04/2022,03:12:08,0.001,0.0,0.0,0.0
20/04/2022,03:13:08,0.001,0.0,0.0,0.0
20/04/2022,03:14:08,0.001,0.0,0.0,0.0
20/04/2022,03:15:08,-0.000,0.0,0.0,0.0
20/04/2022,03:16:07,0.001,0.0,0.0,0.0
20/04/2022,03:17:08,0.001,0.0,0.0,0.0
20/04/2022,03:18:15,0.001,0.0,0.0,0.0
20/04/2022,03:20:08,0.001,0.0,0.0,0.0
20/04/2022,03:21:16,-0.000,0.0,0.0,0.0
20/04/2022,03:22:08,0.001,0.0,0.0,0.0
20/04/2022,03:23:08,0.001,0.0,0.0,0.0
20/04/2022,03:24:16,0.001,0.0,0.0,0.0
20/04/2022,03:24:59,0.001,0.0,0.0,0.0
20/04/2022,03:26:09,0.001,0.0,0.0,0.0
20/04/2022,03:27:07,0.001,0.0,0.0,0.0
20/04/2022,03:28:07,0.001,0.0,0.0,0.0
20/04/2022,03:29:07,0.001,0.0,0.0,0.0
20/04/2022,03:30:07,0.001,0.0,0.0,0.0
20/04/2022,03:31:08,0.001,0.0,0.0,0.0
20/04/2022,03:32:16,0.001,0.0,0.0,0.0
20/04/2022,03:33:07,0.001,0.0,0.0,0.0
20/04/2022,03:34:07,0.001,0.0,0.0,0.0
20/04/2022,03:35:08,0.001,0.0,0.0,0.0
20/04/2022,03:36:08,0.001,0.0,0.0,0.0
20/04/2022,03:37:07,0.001,0.0,0.0,0.0
20/04/2022,03:38:08,0.001,0.0,0.0,0.0
20/04/2022,03:39:07,0.001,0.0,0.0,0.0
20/04/2022,03:40:08,0.001,0.0,0.0,0.0
20/04/2022,03:41:07,0.001,0.0,0.0,0.0
20/04/2022,03:42:15,0.001,0.0,0.0,0.0
20/04/2022,03:44:08,0.001,0.0,0.0,0.0
20/04/2022,03:45:08,0.001,0.0,0.0,0.0
20/04/2022,03:46:07,0.000,0.0,0.0,0.0
20/04/2022,03:47:08,0.001,0.0,0.0,0.0
20/04/2022,03:48:08,0.001,0.0,0.0,0.0
20/04/2022,03:49:08,0.001,0.0,0.0,0.0
20/04/2022,03:50:08,0.001,0.0,0.0,0.0
20/04/2022,03:51:07,0.001,0.0,0.0,0.0
20/04/2022,03:52:16,0.001,0.0,0.0,0.0
20/04/2022,03:53:08,0.001,0.0,0.0,0.0
20/04/2022,03:54:07,0.001,0.0,0.0,0.0
20/04/2022,03:55:07,0.001,0.0,0.0,0.0
20/04/2022,03:56:08,0.001,0.0,0.0,0.0
20/04/2022,03:57:08,0.001,0.0,0.0,0.0
20/04/2022,03:58:07,0.001,0.0,0.0,0.0
20/04/2022,03:59:08,0.001,0.0,0.0,0.0
20/04/2022,04:00:07,-0.000,0.0,0.0,0.0
20/04/2022,04:01:08,0.001,0.0,0.0,0.0
20/04/2022,04:02:08,0.001,0.0,0.0,0.0
20/04/2022,04:03:16,0.001,0.0,0.0,0.0
20/04/2022,04:05:08,0.001,0.0,0.0,0.0
20/04/2022,04:06:08,0.001,0.0,0.0,0.0
20/04/2022,04:07:07,0.001,0.0,0.0,0.0
20/04/2022,04:08:08,0.001,0.0,0.0,0.0
20/04/2022,04:09:08,0.001,0.0,0.0,0.0
20/04/2022,04:10:08,0.001,0.0,0.0,0.0
20/04/2022,04:11:07,0.001,0.0,0.0,0.0
20/04/2022,04:12:08,0.001,0.0,0.0,0.0
20/04/2022,04:13:16,0.001,0.0,0.0,0.0
20/04/2022,04:15:08,0.001,0.0,0.0,0.0
20/04/2022,04:16:08,-0.000,0.0,0.0,0.0
20/04/2022,04:17:08,0.001,0.0,0.0,0.0
20/04/2022,04:18:08,0.001,0.0,0.0,0.0
20/04/2022,04:19:08,0.001,0.0,0.0,0.0
20/04/2022,04:20:07,0.001,0.0,0.0,0.0
20/04/2022,04:21:07,0.001,0.0,0.0,0.0
20/04/2022,04:22:08,0.001,0.0,0.0,0.0
20/04/2022,04:23:17,0.001,0.0,0.0,0.0
20/04/2022,04:24:16,0.001,0.0,0.0,0.0
20/04/2022,04:25:08,0.001,0.0,0.0,0.0
20/04/2022,04:26:08,0.001,0.0,0.0,0.0
20/04/2022,04:27:07,0.001,0.0,0.0,0.0
20/04/2022,04:28:08,0.001,0.0,0.0,0.0
20/04/2022,04:29:08,0.001,0.0,0.0,0.0
20/04/2022,04:30:08,0.001,0.0,0.0,0.0
20/04/2022,04:31:16,0.001,0.0,0.0,0.0
20/04/2022,04:33:08,0.001,0.0,0.0,0.0
20/04/2022,04:34:16,0.001,0.0,0.0,0.0
20/04/2022,04:36:09,0.001,0.0,0.0,0.0
20/04/2022,04:37:08,-0.000,0.0,0.0,0.0
20/04/2022,04:38:08,0.001,0.0,0.0,0.0
20/04/2022,04:39:07,0.000,0.0,0.0,0.0
20/04/2022,04:40:08,0.001,0.0,0.0,0.0
20/04/2022,04:41:16,0.001,0.0,0.0,0.0
20/04/2022,04:43:08,0.001,0.0,0.0,0.0
20/04/2022,04:44:16,0.001,0.0,0.0,0.0
20/04/2022,04:46:08,0.001,0.0,0.0,0.0
20/04/2022,04:47:08,0.001,0.0,0.0,0.0
20/04/2022,04:48:08,0.001,0.0,0.0,0.0
20/04/2022,04:49:08,0.001,0.0,0.0,0.0
20/04/2022,04:50:08,0.001,0.0,0.0,0.0
20/04/2022,04:51:16,0.001,0.0,0.0,0.0
20/04/2022,04:52:07,0.001,0.0,0.0,0.0
20/04/2022,04:53:08,0.001,0.0,0.0,0.0
20/04/2022,04:54:07,0.001,0.0,0.0,0.0
20/04/2022,04:55:07,0.001,0.0,0.0,0.0
20/04/2022,04:56:09,0.001,0.0,0.0,0.0
20/04/2022,04:57:07,0.001,0.0,0.0,0.0
20/04/2022,04:58:08,0.001,0.0,0.0,0.0
20/04/2022,04:59:07,0.001,0.0,0.0,0.0
20/04/2022,05:00:07,0.001,0.0,0.0,0.0
20/04/2022,05:01:08,0.001,0.0,0.0,0.0
20/04/2022,05:02:08,0.001,0.0,0.0,0.0
20/04/2022,05:03:08,0.002,0.0,0.0,0.0
20/04/2022,05:04:08,0.002,0.0,0.0,0.0
20/04/2022,05:05:08,0.002,0.0,0.0,0.0
20/04/2022,05:06:07,0.002,0.0,0.0,0.0
20/04/2022,05:07:07,0.002,0.0,0.0,0.0
20/04/2022,05:08:08,0.002,0.0,0.0,0.0
20/04/2022,05:09:08,0.002,0.0,0.0,0.0
20/04/2022,05:10:08,0.001,0.0,0.0,0.0
20/04/2022,05:11:08,0.002,0.0,0.0,0.0
20/04/2022,05:12:16,0.002,0.0,0.0,0.0
20/04/2022,05:14:08,0.003,0.0,0.0,0.0
20/04/2022,05:15:08,0.002,0.0,0.0,0.0
20/04/2022,05:16:08,0.002,0.0,0.0,0.0
20/04/2022,05:17:08,0.003,0.0,0.0,0.0
20/04/2022,05:18:08,0.003,0.0,0.0,0.0
20/04/2022,05:19:08,0.002,0.0,0.0,0.0
20/04/2022,05:20:08,0.003,0.0,0.0,0.0
20/04/2022,05:20:59,0.003,0.0,0.0,0.0
20/04/2022,05:22:08,0.003,0.0,0.0,0.0
20/04/2022,05:23:08,0.003,0.0,0.0,0.0
20/04/2022,05:24:08,0.003,0.0,0.0,0.0
20/04/2022,05:25:08,0.004,0.0,0.0,0.0
20/04/2022,05:26:07,0.004,0.0,0.0,0.0
20/04/2022,05:27:08,0.005,0.0,0.0,0.0
20/04/2022,05:28:07,0.005,0.0,0.0,0.0
20/04/2022,05:29:08,0.005,0.0,0.0,0.0
20/04/2022,05:30:16,0.005,0.0,0.0,0.0
20/04/2022,05:31:08,0.005,0.0,0.0,0.0
20/04/2022,05:32:09,0.005,0.0,0.0,0.0
20/04/2022,05:33:17,0.005,0.0,0.0,0.0
20/04/2022,05:35:09,0.005,0.0,0.0,0.0
20/04/2022,05:36:07,0.006,0.0,0.0,0.0
20/04/2022,05:37:08,0.006,0.0,0.0,0.0
20/04/2022,05:38:09,0.005,0.0,0.0,0.0
20/04/2022,05:39:08,0.005,0.0,0.0,0.0
20/04/2022,05:40:07,0.006,0.0,0.0,0.0
20/04/2022,05:41:08,0.006,0.0,0.0,0.0
20/04/2022,05:42:08,0.006,0.0,0.0,0.0
20/04/2022,05:43:07,0.007,0.0,0.0,0.0
20/04/2022,05:44:08,0.007,0.0,0.0,0.0
20/04/2022,05:45:08,0.008,0.0,0.001,0.001
20/04/2022,05:46:08,0.008,0.0,0.001,0.0
20/04/2022,05:47:08,0.008,0.0,0.001,0.0
20/04/2022,05:48:07,0.008,0.0,0.001,0.0
20/04/2022,05:49:08,0.009,0.0,0.001,0.0
20/04/2022,05:50:08,0.008,0.0,0.001,0.0
20/04/2022,05:51:16,0.008,0.0,0.001,0.0
20/04/2022,05:53:09,0.009,0.0,0.002,0.001
20/04/2022,05:54:07,0.009,0.0,0.002,0.0
20/04/2022,05:55:10,0.010,0.0,0.002,0.0
20/04/2022,05:56:08,0.011,0.0,0.002,0.0
20/04/2022,05:57:08,0.011,0.0,0.002,0.0
20/04/2022,05:58:07,0.011,0.0,0.002,0.0
20/04/2022,05:59:08,0.010,0.0,0.003,0.001
20/04/2022,06:00:08,0.012,0.0,0.003,0.0
20/04/2022,06:01:16,0.012,0.0,0.003,0.0
20/04/2022,06:03:08,0.011,0.0,0.003,0.0
20/04/2022,06:04:08,0.014,0.0,0.004,0.001
20/04/2022,06:05:08,0.014,0.0,0.004,0.0
20/04/2022,06:06:08,0.014,0.0,0.004,0.0
20/04/2022,06:07:08,0.015,0.0,0.004,0.0
20/04/2022,06:08:07,0.015,0.0,0.005,0.001
20/04/2022,06:09:08,0.017,0.0,0.005,0.0
20/04/2022,06:10:08,0.016,0.0,0.005,0.0
20/04/2022,06:11:16,0.016,0.0,0.005,0.0
20/04/2022,06:12:07,0.016,0.0,0.006,0.001
20/04/2022,06:13:08,0.018,0.0,0.006,0.0
20/04/2022,06:14:08,0.018,0.0,0.006,0.0
20/04/2022,06:15:08,0.019,0.0,0.007,0.001
20/04/2022,06:16:07,0.020,0.0,0.007,0.0
20/04/2022,06:17:07,0.022,0.0,0.007,0.0
20/04/2022,06:18:08,0.020,0.0,0.008,0.001
20/04/2022,06:19:08,0.021,0.0,0.008,0.0
20/04/2022,06:20:08,0.024,0.0,0.008,0.0
20/04/2022,06:21:08,0.024,0.0,0.009,0.001
20/04/2022,06:22:16,0.026,0.0,0.009,0.0
20/04/2022,06:24:08,0.030,0.0,0.01,0.001
20/04/2022,06:25:08,0.030,0.0,0.011,0.001
20/04/2022,06:26:08,0.031,0.0,0.011,0.0
20/04/2022,06:27:08,0.034,0.0,0.012,0.001
20/04/2022,06:28:08,0.034,0.0,0.012,0.0
20/04/2022,06:29:08,0.035,0.0,0.013,0.001
20/04/2022,06:30:08,0.035,0.0,0.013,0.0
20/04/2022,06:31:08,0.035,0.0,0.014,0.001
20/04/2022,06:32:17,0.034,0.0,0.015,0.001
20/04/2022,06:33:08,0.036,0.0,0.015,0.0
20/04/2022,06:34:08,0.037,0.0,0.016,0.001
20/04/2022,06:35:08,0.041,0.0,0.016,0.0
20/04/2022,06:36:08,0.045,0.0,0.017,0.001
20/04/2022,06:37:08,0.047,0.0,0.018,0.001
20/04/2022,06:38:08,0.049,0.0,0.019,0.001
20/04/2022,06:39:08,0.050,0.0,0.02,0.001
20/04/2022,06:40:08,0.054,0.0,0.02,0.0
20/04/2022,06:41:08,0.054,0.0,0.021,0.001
20/04/2022,06:42:07,0.061,0.0,0.022,0.001
20/04/2022,06:43:08,0.065,0.0,0.023,0.001
20/04/2022,06:44:08,0.066,0.0,0.024,0.001
20/04/2022,06:45:08,0.068,0.0,0.026,0.002
20/04/2022,06:46:08,0.069,0.0,0.027,0.001
20/04/2022,06:47:08,0.072,0.0,0.028,0.001
20/04/2022,06:48:07,0.075,0.0,0.029,0.001
20/04/2022,06:49:08,0.077,0.0,0.03,0.001
20/04/2022,06:50:08,0.079,0.0,0.032,0.002
20/04/2022,06:51:08,0.080,0.0,0.033,0.001
20/04/2022,06:52:08,0.083,0.0,0.034,0.001
20/04/2022,06:53:16,0.085,0.0,0.036,0.002
20/04/2022,06:55:16,0.083,0.0,0.039,0.003
20/04/2022,06:57:09,0.091,0.0,0.041,0.002
20/04/2022,06:58:08,0.093,0.0,0.043,0.002
20/04/2022,06:59:07,0.096,0.0,0.044,0.001
20/04/2022,07:00:08,0.100,0.0,0.046,0.002
20/04/2022,07:01:08,0.102,0.0,0.048,0.002
20/04/2022,07:02:08,0.103,0.0,0.049,0.001
20/04/2022,07:03:08,0.103,0.0,0.051,0.002
20/04/2022,07:04:17,0.108,0.0,0.053,0.002
20/04/2022,07:05:08,0.109,0.0,0.055,0.002
20/04/2022,07:06:08,0.111,0.0,0.057,0.002
20/04/2022,07:07:08,0.114,0.0,0.058,0.001
20/04/2022,07:08:08,0.115,0.0,0.06,0.002
20/04/2022,07:09:08,0.117,0.0,0.062,0.002
20/04/2022,07:10:09,0.117,0.0,0.064,0.002
20/04/2022,07:11:08,0.118,0.0,0.066,0.002
20/04/2022,07:12:08,0.120,0.0,0.068,0.002
20/04/2022,07:13:08,0.121,0.0,0.07,0.002
20/04/2022,07:14:16,0.123,0.0,0.072,0.002
20/04/2022,07:15:17,0.124,0.0,0.075,0.003
20/04/2022,07:16:08,0.125,0.0,0.076,0.001
20/04/2022,07:17:08,0.126,0.0,0.078,0.002
20/04/2022,07:18:08,0.129,0.0,0.081,0.003
20/04/2022,07:19:08,0.130,0.0,0.083,0.002
20/04/2022,07:20:08,0.132,0.0,0.085,0.002
20/04/2022,07:21:08,0.134,0.0,0.087,0.002
20/04/2022,07:22:16,0.136,0.0,0.09,0.003
20/04/2022,07:24:08,0.139,0.0,0.094,0.004
20/04/2022,07:25:08,0.142,0.0,0.096,0.002
20/04/2022,07:26:08,0.143,0.0,0.099,0.003
20/04/2022,07:27:09,0.145,0.0,0.101,0.002
20/04/2022,07:28:08,0.147,0.0,0.104,0.003
20/04/2022,07:29:08,0.150,0.0,0.106,0.002
20/04/2022,07:30:24,0.153,0.0,0.109,0.003
20/04/2022,07:32:08,0.157,0.0,0.114,0.005
20/04/2022,07:33:08,0.160,0.0,0.116,0.002
20/04/2022,07:34:08,0.163,0.0,0.119,0.003
20/04/2022,07:35:17,0.167,0.0,0.122,0.003
20/04/2022,07:36:09,0.170,0.0,0.125,0.003
20/04/2022,07:37:08,0.173,0.0,0.127,0.002
20/04/2022,07:38:08,0.175,0.0,0.13,0.003
20/04/2022,07:39:08,0.179,0.0,0.133,0.003
20/04/2022,07:40:08,0.183,0.0,0.136,0.003
20/04/2022,07:41:08,0.187,0.0,0.139,0.003
20/04/2022,07:42:08,0.192,0.0,0.143,0.004
20/04/2022,07:43:17,0.197,0.0,0.146,0.003
20/04/2022,07:44:08,0.200,0.0,0.149,0.003
20/04/2022,07:45:08,0.205,0.0,0.152,0.003
20/04/2022,07:46:08,0.210,0.0,0.156,0.004
20/04/2022,07:47:08,0.216,0.0,0.159,0.003
20/04/2022,07:48:08,0.221,1.0,0.163,0.004
20/04/2022,07:49:08,0.224,1.0,0.167,0.004
20/04/2022,07:50:08,0.230,1.0,0.171,0.004
20/04/2022,07:51:08,0.235,1.0,0.175,0.004
20/04/2022,07:52:09,0.240,1.0,0.178,0.003
20/04/2022,07:53:16,0.244,1.0,0.183,0.005
20/04/2022,07:55:09,0.251,1.0,0.191,0.008
20/04/2022,07:56:08,0.255,1.0,0.195,0.004
20/04/2022,07:57:08,0.260,1.0,0.199,0.004
20/04/2022,07:58:08,0.264,1.0,0.204,0.005
20/04/2022,07:59:09,0.269,1.0,0.208,0.004
20/04/2022,08:00:08,0.274,1.0,0.213,0.005
20/04/2022,08:01:08,0.277,1.0,0.217,0.004
20/04/2022,08:02:08,0.281,1.0,0.222,0.005
20/04/2022,08:03:16,0.287,1.0,0.227,0.005
20/04/2022,08:04:08,0.291,1.0,0.231,0.004
20/04/2022,08:05:08,0.293,1.0,0.236,0.005
20/04/2022,08:06:08,0.295,1.0,0.241,0.005
20/04/2022,08:07:08,0.295,1.0,0.246,0.005
20/04/2022,08:08:08,0.297,1.0,0.251,0.005
20/04/2022,08:09:08,0.298,1.0,0.256,0.005
20/04/2022,08:10:08,0.301,1.0,0.261,0.005
20/04/2022,08:11:08,0.306,1.0,0.266,0.005
20/04/2022,08:12:08,0.310,1.0,0.271,0.005
20/04/2022,08:13:08,0.313,1.0,0.276,0.005
20/04/2022,08:14:08,0.318,1.0,0.282,0.006
20/04/2022,08:15:08,0.324,1.0,0.287,0.005
20/04/2022,08:16:08,0.331,1.0,0.292,0.005
20/04/2022,08:17:16,0.336,1.0,0.299,0.007
20/04/2022,08:18:07,0.338,1.0,0.304,0.005
20/04/2022,08:19:08,0.336,1.0,0.309,0.005
20/04/2022,08:20:08,0.338,1.0,0.315,0.006
20/04/2022,08:21:08,0.342,1.0,0.32,0.005
20/04/2022,08:22:08,0.347,1.0,0.326,0.006
20/04/2022,08:23:08,0.350,1.0,0.332,0.006
20/04/2022,08:24:08,0.351,1.0,0.338,0.006
20/04/2022,08:25:08,0.355,1.0,0.344,0.006
20/04/2022,08:26:08,0.359,1.0,0.35,0.006
20/04/2022,08:27:08,0.363,1.0,0.356,0.006
20/04/2022,08:28:08,0.367,1.0,0.362,0.006
20/04/2022,08:29:08,0.372,1.0,0.368,0.006
20/04/2022,08:30:08,0.368,1.0,0.374,0.006
20/04/2022,08:31:08,0.364,1.0,0.38,0.006
20/04/2022,08:32:08,0.361,1.0,0.386,0.006
20/04/2022,08:33:08,0.363,1.0,0.392,0.006
20/04/2022,08:34:08,0.367,1.0,0.398,0.006
20/04/2022,08:35:17,0.376,1.0,0.405,0.007
20/04/2022,08:36:08,0.384,1.0,0.411,0.006
20/04/2022,08:37:08,0.398,1.0,0.417,0.006
20/04/2022,08:38:16,0.424,1.0,0.425,0.008
20/04/2022,08:39:07,0.450,1.0,0.431,0.006
20/04/2022,08:40:08,0.481,1.0,0.439,0.008
20/04/2022,08:41:17,0.507,1.0,0.448,0.009
20/04/2022,08:43:17,0.545,1.0,0.466,0.018
20/04/2022,08:45:09,0.574,1.0,0.484,0.018
20/04/2022,08:46:08,0.592,1.0,0.493,0.009
20/04/2022,08:47:08,0.608,1.0,0.503,0.01
20/04/2022,08:48:08,0.629,1.0,0.513,0.01
20/04/2022,08:49:16,0.647,1.0,0.525,0.012
20/04/2022,08:50:07,0.658,2.0,0.535,0.01
20/04/2022,08:51:08,0.661,2.0,0.546,0.011
20/04/2022,08:52:08,0.662,2.0,0.557,0.011
20/04/2022,08:53:09,0.663,2.0,0.568,0.011
20/04/2022,08:54:09,0.672,2.0,0.579,0.011
20/04/2022,08:55:09,0.675,2.0,0.59,0.011
20/04/2022,08:56:09,0.676,2.0,0.602,0.012
20/04/2022,08:57:08,0.683,2.0,0.613,0.011
20/04/2022,08:58:08,0.670,2.0,0.624,0.011
20/04/2022,08:59:16,0.657,2.0,0.637,0.013
20/04/2022,09:00:19,0.671,2.0,0.649,0.012
20/04/2022,09:02:09,0.686,2.0,0.669,0.02
20/04/2022,09:03:08,0.699,2.0,0.68,0.011
20/04/2022,09:04:08,0.705,2.0,0.692,0.012
20/04/2022,09:05:08,0.715,2.0,0.704,0.012
20/04/2022,09:06:08,0.717,2.0,0.716,0.012
20/04/2022,09:07:08,0.718,2.0,0.728,0.012
20/04/2022,09:08:08,0.709,2.0,0.74,0.012
20/04/2022,09:09:16,0.687,2.0,0.753,0.013
20/04/2022,09:10:07,0.700,2.0,0.763,0.01
20/04/2022,09:11:08,0.711,2.0,0.775,0.012
20/04/2022,09:12:08,0.727,2.0,0.787,0.012
20/04/2022,09:13:08,0.721,2.0,0.799,0.012
20/04/2022,09:14:08,0.716,2.0,0.811,0.012
20/04/2022,09:15:08,0.720,2.0,0.823,0.012
20/04/2022,09:16:08,0.706,2.0,0.835,0.012
20/04/2022,09:17:08,0.716,2.0,0.847,0.012
20/04/2022,09:18:08,0.724,2.0,0.859,0.012
20/04/2022,09:19:08,0.737,2.0,0.871,0.012
20/04/2022,09:20:08,0.732,2.0,0.883,0.012
20/04/2022,09:21:08,0.704,2.0,0.896,0.013
20/04/2022,09:22:08,0.688,2.0,0.907,0.011
20/04/2022,09:23:18,0.696,2.0,0.92,0.013
20/04/2022,09:25:09,0.746,2.0,0.943,0.023
20/04/2022,09:26:09,0.773,2.0,0.955,0.012
20/04/2022,09:27:08,0.801,2.0,0.968,0.013
20/04/2022,09:28:08,0.818,2.0,0.982,0.014
20/04/2022,09:29:08,0.808,2.0,0.996,0.014
20/04/2022,09:30:09,0.836,2.0,1.009,0.013
20/04/2022,09:31:08,0.850,2.0,1.023,0.014
20/04/2022,09:32:08,0.857,2.0,1.037,0.014
20/04/2022,09:33:16,0.865,2.0,1.054,0.017
20/04/2022,09:34:08,0.866,2.0,1.066,0.012
20/04/2022,09:35:09,0.878,2.0,1.081,0.015
20/04/2022,09:36:09,0.882,2.0,1.095,0.014
20/04/2022,09:37:08,0.887,2.0,1.11,0.015
20/04/2022,09:38:08,0.893,2.0,1.125,0.015
20/04/2022,09:39:08,0.900,2.0,1.14,0.015
20/04/2022,09:40:08,0.898,2.0,1.155,0.015
20/04/2022,09:41:08,0.891,2.0,1.17,0.015
20/04/2022,09:42:08,0.891,2.0,1.184,0.014
20/04/2022,09:43:16,0.906,2.0,1.201,0.017
20/04/2022,09:44:08,0.923,2.0,1.215,0.014
20/04/2022,09:45:09,0.930,2.0,1.23,0.015
20/04/2022,09:46:08,0.906,2.0,1.245,0.015
20/04/2022,09:47:16,0.938,2.0,1.263,0.018
20/04/2022,09:49:10,0.944,2.0,1.293,0.03
20/04/2022,09:50:09,0.966,2.0,1.308,0.015
20/04/2022,09:51:08,0.977,2.0,1.324,0.016
20/04/2022,09:52:08,0.979,2.0,1.341,0.017
20/04/2022,09:53:09,0.983,2.0,1.357,0.016
20/04/2022,09:54:08,0.989,2.0,1.373,0.016
20/04/2022,09:55:09,0.997,2.0,1.39,0.017
20/04/2022,09:56:08,1.010,2.0,1.407,0.017
20/04/2022,09:57:16,1.016,2.0,1.426,0.019
20/04/2022,09:58:07,1.020,2.0,1.44,0.014
20/04/2022,09:59:08,1.028,2.0,1.458,0.018
20/04/2022,10:00:08,1.035,2.0,1.475,0.017
20/04/2022,10:01:09,1.021,2.0,1.492,0.017
20/04/2022,10:02:09,1.052,2.0,1.509,0.017
20/04/2022,10:03:08,1.007,2.0,1.526,0.017
20/04/2022,10:04:08,0.999,2.0,1.543,0.017
20/04/2022,10:05:09,1.043,2.0,1.56,0.017
20/04/2022,10:06:09,1.065,2.0,1.578,0.018
20/04/2022,10:07:16,1.079,2.0,1.598,0.02
20/04/2022,10:08:08,1.081,2.0,1.613,0.015
20/04/2022,10:09:08,1.083,2.0,1.631,0.018
20/04/2022,10:10:08,1.096,3.0,1.65,0.019
20/04/2022,10:11:09,1.085,2.0,1.668,0.018
20/04/2022,10:12:08,1.062,2.0,1.685,0.017
20/04/2022,10:13:08,1.014,2.0,1.703,0.018
20/04/2022,10:14:08,0.983,2.0,1.719,0.016
20/04/2022,10:15:08,0.983,2.0,1.735,0.016
20/04/2022,10:16:08,1.047,2.0,1.752,0.017
20/04/2022,10:17:16,1.093,3.0,1.772,0.02
20/04/2022,10:19:09,1.143,3.0,1.808,0.036
20/04/2022,10:20:17,1.155,3.0,1.829,0.021
20/04/2022,10:21:08,1.169,3.0,1.846,0.017
20/04/2022,10:22:08,1.079,2.0,1.864,0.018
20/04/2022,10:23:17,1.119,3.0,1.885,0.021
20/04/2022,10:24:08,1.125,3.0,1.902,0.017
20/04/2022,10:25:08,1.123,3.0,1.92,0.018
20/04/2022,10:26:08,1.064,2.0,1.938,0.018
20/04/2022,10:27:09,1.039,2.0,1.956,0.018
20/04/2022,10:28:08,1.100,3.0,1.974,0.018
20/04/2022,10:29:09,1.120,3.0,1.993,0.019
20/04/2022,10:30:09,1.118,3.0,2.011,0.018
20/04/2022,10:31:09,1.154,3.0,2.029,0.018
20/04/2022,10:32:08,1.189,3.0,2.049,0.02
20/04/2022,10:33:17,1.160,3.0,2.072,0.023
20/04/2022,10:35:17,1.175,3.0,2.111,0.039
20/04/2022,10:37:09,1.147,3.0,2.147,0.036
20/04/2022,10:38:20,1.088,3.0,2.169,0.022
20/04/2022,10:40:09,1.129,3.0,2.202,0.033
20/04/2022,10:41:08,1.224,3.0,2.221,0.019
20/04/2022,10:42:08,1.263,3.0,2.242,0.021
20/04/2022,10:43:08,1.288,3.0,2.263,0.021
20/04/2022,10:44:09,1.275,3.0,2.285,0.022